User: anonymous   Login
Location: Caltech
(34.1382°N, 118.1253°W)
Time: 12:03:57
(UTC-07:00)
Language:

Cosmos 1606 - Orbit

View from above orbital plane
View from above orbital plane
View from above satellite
View from above satellite

Ground track
Ground track

The orbit data is extracted from the following two-line orbital elements,

1 15369U 84111A   17173.79738405 +.00000704 +00000-0 +35342-4 0  9993
2 15369 082.5284 117.0524 0016365 235.9867 123.9812 15.15575769781313
Epoch (UTC): 22 June 2017 19:08:13
Eccentricity: 0.0016365
inclination: 82.5284°
perigee height: 508 km
apogee height: 530 km
right ascension of ascending node: 117.0524°
argument of perigee: 235.9867°
revolutions per day: 15.15575769
mean anomaly at epoch: 123.9812°
orbit number at epoch: 78131

The dashed part of the orbit path shows where the satellite is in the earth's shadow,  

DLR